Flag for Germany Weather past 2 weeks in Schorndorf, Baden-Württemberg, Germany

Now
65 °F

Overcast.


Feels Like: 65 °F
Forecast: 48 / 68 °F
Wind: 2 mph from East

Location: Stuttgart-Echterdingen

Current Time: Aug 22, 2014 at 12:31:23 PM

Latest Report: Aug 22, 2014 at 12:00 PM


Visibility: 38 mi

Pressure: 29.99 "Hg

Humidity: 53%

Dew point: 47 °F

Location of SchorndorfLocation

Historic Weather in Schorndorf — Graph

°F

Schorndorf temperature yesterday

Maximum temperature yesterday: 65 °F (at 4:00 PM)
Minimum temperature yesterday: 48 °F (at 7:00 AM)
Average temperature yesterday: 58 °F

Past Weeks' High & Low Weather Summary

 TemperatureHumidityPressure
High82 °F (Aug 10, 6:00 PM)100% (Aug 8, 8:00 AM)30.18 "Hg (Aug 8, 8:00 AM)
Low48 °F (Aug 21, 7:00 AM)43% (Aug 12, 3:00 PM)29.67 "Hg (Aug 13, 5:00 PM)
Average62 °F74%29.95 "Hg
* Reported Aug 7 12:00 Noon — Aug 22 11:00 AM, Schorndorf, Weather by CustomWeather, © 2014

Note: Actual official high and low records may vary slightly from our data, if they occured in-between our weather recording intervals... More about our weather records

Advertising

Schorndorf weather history for previous 24 hours

 ConditionsComfort  
Time TempWeatherWind HumidityBarometerVisibility
11:00 AM
Aug 22
61 °FOvercast.2 mph66%30.02 "Hg37 mi
10:00 AM56 °FOvercast.1 mph76%30.02 "Hg37 mi
9:00 AM53 °FOvercast.1 mph83%30.03 "Hg31 mi
8:00 AM50 °FOvercast.1 mph94%30.04 "Hg31 mi
7:00 AM48 °FOvercast.1 mph94%30.04 "Hg31 mi
6:00 AM49 °FPassing clouds.1 mph93%30.04 "Hg28 mi
4:00 AM49 °FPassing clouds.1 mph90%30.05 "Hg31 mi
3:00 AM49 °FPassing clouds.1 mph88%30.06 "Hg31 mi
2:00 AM49 °FPassing clouds.1 mph86%30.06 "Hg31 mi
1:00 AM52 °FPassing clouds.1 mph82%30.06 "Hg34 mi
12:00 AM54 °FPassing clouds.1 mph78%30.06 "Hg31 mi
11:00 PM
Aug 21
56 °FPassing clouds.1 mph71%30.05 "Hg31 mi
10:00 PM58 °FPassing clouds.1 mph65%30.04 "Hg31 mi
9:00 PM61 °FPassing clouds.1 mph58%30.02 "Hg34 mi
8:00 PM62 °FPartly sunny.2 mph57%30.01 "Hg37 mi
7:00 PM63 °FPartly sunny.3 mph51%30.01 "Hg37 mi
6:00 PM64 °FPartly sunny.3 mph53%30.01 "Hg37 mi
4:00 PM65 °FPartly sunny.3 mph45%30.02 "Hg37 mi
3:00 PM64 °FScattered clouds.3 mph48%30.03 "Hg37 mi
2:00 PM64 °FPartly sunny.2 mph52%30.05 "Hg37 mi
1:00 PM62 °FPartly sunny.2 mph53%30.06 "Hg37 mi
12:00 PM63 °FScattered clouds.2 mph46%30.06 "Hg31 mi
Weather by CustomWeather, © 2014

See weather overviewHow to use our weather pages